Location: Newark
(48.5667°N, 3.3000°E)
Time: 17:35:57
(UTC+00:00)

N. Korean satellite - Pass Details

Date: 31 October 2019
Orbit: 456 x 506 km, 97.2° (Epoch: 16 November)

Event Time Altitude Azimuth Distance (km) Brightness Sun altitude
Rises 04:48:05 0° 27° (NNE) 2,598 10.6 -17.4°
Reaches altitude 10° 04:50:41 10° 47° (NE) 1,716 10.0 -17.0°
Maximum altitude 04:53:18 18° 92° (E) 1,280 9.8 -16.6°
Drops below altitude 10° 04:55:56 10° 137° (SE) 1,715 10.0 -16.1°
Sets 04:58:31 0° 157° (SSE) 2,597 10.6 -15.7°
